Regional Weather Roundup
Issued by NWS

Home | Current Version | Previous Version | Graphics & Text | Print | Product List | Glossary On
Versions: 1 2 3 4 5 6 7 8 9 10 11 12 13 14 15 16 17 18 19 20 21 22 23 24 25 26 27 28 29 30 31 32 33 34 35 36 37 38 39 40 41 42 43 44 45 46 47 48 49 50
000
ASUS43 KLSX 212059
RWRMO

WEATHER SUMMARY FOR MISSOURI
NATIONAL WEATHER SERVICE SPRINGFIELD MO
400 PM CDT TUE OCT 21 2014

NOTE: "FAIR" INDICATES FEW OR NO CLOUDS BELOW 12,000 FEET WITH NO
       SIGNIFICANT WEATHER AND/OR OBSTRUCTIONS TO VISIBILITY.
       CURRENT SKY AND/OR WEATHER CONDITIONS ARE NOT AVAILABLE FOR
       CHILLICOTHE AND FARMINGTON.

MOZ001>031-035>038-043-044-053-054-212200-
...NORTHERN AND WESTERN MISSOURI...

CITY           SKY/WX    TMP DP  RH WIND       PRES   REMARKS
KANSAS CTY INT SUNNY     71  42  35 SE5       30.08F
KANSAS C DTWN  SUNNY     74  43  32 SE3       30.07F
LEE`S SUMMIT   SUNNY     73  41  31 VRB3      30.09S
ST JOSEPH      SUNNY     74  40  29 SE3       30.07F
CHILLICOTHE      N/A     72  45  37 E3        30.10S
KIRKSVILLE     SUNNY     66  46  48 E5        30.13S

$$
MOZ066>068-077>081-088>096-101>105-212200-
...SOUTHWEST MISSOURI...

CITY           SKY/WX    TMP DP  RH WIND       PRES   REMARKS
SPRINGFIELD    SUNNY     73  42  32 CALM      30.08F
JOPLIN         SUNNY     76  50  40 CALM      30.07F

$$
MOZ032>034-039>042-045>050-055>058-069>072-212200-
...CENTRAL MISSOURI...

CITY           SKY/WX    TMP DP  RH WIND       PRES   REMARKS
COLUMBIA       SUNNY     72  44  36 NE6       30.10S
JEFFERSON CITY SUNNY     74  43  32 VRB6      30.08F
ROLLA          SUNNY     70  44  39 E3        30.08F
SEDALIA        SUNNY     73  44  35 VRB3      30.10S
OSAGE BEACH    SUNNY     73  45  35 S5        30.09S

$$
MOZ051-052-059>065-212200-
...EAST CENTRAL MISSOURI...

CITY           SKY/WX    TMP DP  RH WIND       PRES   REMARKS
ST LOUIS INTL  SUNNY     67  43  41 NE8       30.11S
SPIRIT OF STL  SUNNY     67  45  45 N5        30.10S
ST CHARLES     SUNNY     66  44  45 NE12      30.11S

$$
MOZ072>076-082>087-097>100-106>115-212200-
...SOUTH CENTRAL AND SOUTHEAST MISSOURI...

CITY           SKY/WX    TMP DP  RH WIND       PRES   REMARKS
CAPE GIRARDEAU SUNNY     71  45  39 N12       30.07S
FARMINGTON     SUNNY     70  45  40 NW6       30.11S
POPLAR BLUFF   SUNNY     76  43  30 NE7       30.05S
WEST PLAINS    SUNNY     73  42  32 NW3       30.09F

$$



USA.gov is the U.S. government's official web portal to all federal, state and local government web resources and services.